DW8847 Weather Reports


Display with metric or nautical units.
time (UTC)temp
F
wind
direction
speed
MPH
gust
MPH
rain 1hr
in
rain 24hr
in
rain mn
in
humidity
%
barometer
mb
20260903221503 70 51 0.0 2.0 0.00 0.00 0.00 79 1017.5
20260903220001 70 51 0.0 2.0 0.00 0.00 0.00 79 1017.5
20260903214501 70 51 0.0 3.0 0.00 0.00 0.00 81 1017.6
20260903213104 70 276 0.0 2.0 0.00 0.00 0.00 82 1017.5
20260903211602 69 270 0.0 1.0 0.00 0.00 0.00 84 1017.4
20260903204559 70 242 0.0 1.0 0.00 0.00 0.00 84 1017.1
20260903203100 69 242 0.0 1.0 0.00 0.00 0.00 85 1017.0
20260903201559 70 242 0.0 2.0 0.00 0.00 0.00 84 1017.0
20260903200058 70 242 0.0 0.0 0.00 0.00 0.00 84 1016.9
20260903194558 70 242 0.0 0.0 0.00 0.00 0.00 84 1016.9
20260903193057 71 242 0.0 0.0 0.00 0.00 0.00 83 1017.0
20260903191555 72 242 0.0 0.0 0.00 0.00 0.00 82 1016.9
20260903184555 74 242 0.0 0.0 0.00 0.00 0.00 75 1016.8
20260903183056 75 242 0.0 0.0 0.00 0.00 0.00 74 1016.6
20260903181555 77 242 0.0 0.0 0.00 0.00 0.00 69 1016.5
20260903180056 79 242 0.0 0.0 0.00 0.00 0.00 67 1016.4
20260903174553 80 242 0.0 0.0 0.00 0.00 0.00 61 1016.3
20260903173054 81 242 0.0 0.0 0.00 0.00 0.00 57 1016.3
20260903171554 83 242 0.0 0.0 0.00 0.00 0.00 57 1016.1
20260903170058 85 242 0.0 0.0 0.00 0.00 0.00 57 1016.1
20260903164557 86 242 0.0 0.0 0.00 0.00 0.00 58 1016.2
20260903163107 88 242 0.0 0.0 0.00 0.00 0.00 46 1016.2
20260903161551 89 242 0.0 0.0 0.00 0.00 0.00 48 1016.1
20260903160100 90 242 0.0 2.0 0.00 0.00 0.00 46 1016.0
20260903154549 90 242 0.0 1.0 0.00 0.00 0.00 46 1015.9
20260903153046 89 242 0.0 2.0 0.00 0.00 0.00 43 1016.0
20260903151549 89 242 0.0 3.0 0.00 0.00 0.00 42 1015.7
20260903150108 88 208 0.0 2.0 0.00 0.00 0.00 42 1015.6
20260903144543 88 246 0.0 2.0 0.00 0.00 0.00 46 1015.9
20260903143044 88 246 1.0 4.0 0.00 0.00 0.00 41 1016.1
20260903141544 88 242 0.0 4.0 0.00 0.00 0.00 47 1016.1
20260903140044 88 190 1.0 4.0 0.00 0.00 0.00 41 1016.5
20260903134538 88 232 0.0 3.0 0.00 0.00 0.00 45 1016.5
20260903133037 88 188 1.0 3.0 0.00 0.00 0.00 45 1016.5
20260903131536 88 234 2.0 4.0 0.00 0.00 0.00 41 1016.5
20260903130036 88 244 0.0 3.0 0.00 0.00 0.00 41 1016.5
20260903124535 88 205 0.0 3.0 0.00 0.00 0.00 39 1016.5
20260903123035 88 244 0.0 5.0 0.00 0.00 0.00 45 1016.8
20260903121531 88 186 1.0 3.0 0.00 0.00 0.00 43 1016.8
20260903120034 88 265 0.0 5.0 0.00 0.00 0.00 44 1016.9
20260903114532 88 199 0.0 4.0 0.00 0.00 0.00 43 1017.1
20260903113030 86 253 1.0 3.0 0.00 0.00 0.00 42 1017.2
20260903111528 87 202 0.0 2.0 0.00 0.00 0.00 39 1017.4
20260903110028 87 27 0.0 4.0 0.00 0.00 0.00 41 1017.5
20260903104527 88 111 0.0 2.0 0.00 0.00 0.00 43 1017.5
20260903103023 87 117 0.0 3.0 0.00 0.00 0.00 46 1017.6
20260903101520 86 144 0.0 2.0 0.00 0.00 0.00 45 1017.8
20260903100025 85 132 0.0 2.0 0.00 0.00 0.00 47 1018.0
20260903094515 85 70 0.0 3.0 0.00 0.00 0.00 44 1018.5
20260903093011 85 68 1.0 2.0 0.00 0.00 0.00 47 1018.5
20260903091508 84 55 0.0 4.0 0.00 0.00 0.00 50 1018.5
20260903090009 83 26 1.0 3.0 0.00 0.00 0.00 51 1018.5
20260903084603 83 11 1.0 5.0 0.00 0.00 0.00 53 1018.5
20260903083059 82 13 2.0 4.0 0.00 0.00 0.00 54 1018.5
20260903081555 81 65 1.0 3.0 0.00 0.00 0.00 57 1018.4
20260903080049 80 48 1.0 4.0 0.00 0.00 0.00 59 1018.4
20260903074547 78 22 0.0 4.0 0.00 0.00 0.00 61 1018.4
20260903073042 77 18 1.0 4.0 0.00 0.00 0.00 61 1018.3
20260903071546 76 18 1.0 3.0 0.00 0.00 0.00 63 1018.4
20260903070054 74 20 2.0 4.0 0.00 0.00 0.00 64 1018.4
20260903064530 73 22 1.0 4.0 0.00 0.00 0.00 67 1018.3
20260903063026 72 22 2.0 5.0 0.00 0.00 0.00 71 1018.2
20260903061521 70 13 3.0 5.0 0.00 0.00 0.00 72 1017.9
20260903060018 69 17 2.0 5.0 0.00 0.00 0.00 75 1017.9
20260903054518 68 19 1.0 3.0 0.00 0.00 0.00 77 1017.8
20260903053009 66 19 0.0 3.0 0.00 0.00 0.00 79 1017.7
20260903051506 65 19 0.0 2.0 0.00 0.00 0.00 80 1017.5
20260903050003 64 19 0.0 2.0 0.00 0.00 0.00 81 1017.5
20260903044501 64 19 0.0 2.0 0.00 0.00 0.00 82 1017.3
20260903043059 64 19 0.0 2.0 0.00 0.00 0.00 81 1017.4
20260903041609 64 19 0.0 2.0 0.00 0.00 0.00 81 1017.2
20260903040108 64 19 0.0 2.0 0.00 0.00 0.00 81 1017.1
20260903034607 64 19 0.0 2.0 0.00 0.00 0.00 81 1017.2
20260903033055 65 19 0.0 2.0 0.00 0.00 0.00 81 1017.1
20260903031552 65 19 0.0 2.0 0.00 0.00 0.00 79 1017.0
20260903030051 66 19 0.0 3.0 0.00 0.00 0.00 78 1017.0
20260903024552 67 17 2.0 4.0 0.00 0.00 0.00 77 1017.1
20260903023051 67 16 2.0 4.0 0.00 0.00 0.00 77 1017.1
20260903021554 67 23 1.0 4.0 0.00 0.00 0.00 76 1017.1
20260903020050 67 30 3.0 5.0 0.00 0.00 0.00 76 1017.1
20260903014559 67 44 2.0 4.0 0.00 0.00 0.00 76 1017.2
20260903013058 67 36 1.0 2.0 0.00 0.00 0.00 76 1017.2
20260903011546 67 56 1.0 3.0 0.00 0.00 0.00 76 1017.2
20260903010044 67 25 0.0 2.0 0.00 0.00 0.00 77 1017.1
20260903004551 66 23 1.0 4.0 0.00 0.00 0.00 77 1017.0
20260903003050 67 23 1.0 3.0 0.00 0.00 0.00 76 1016.9
20260903001541 67 22 0.0 2.0 0.00 0.00 0.00 75 1016.9
20260903000049 67 20 0.0 2.0 0.00 0.00 0.00 74 1016.9
20260902234539 68 20 0.0 2.0 0.00 0.00 0.00 74 1016.9
20260902233042 67 20 0.0 2.0 0.00 0.00 0.00 76 1017.0
20260902231541 67 20 0.0 2.0 0.00 0.00 0.00 81 1017.0
20260902230032 68 20 0.0 0.0 0.00 0.00 0.00 81 1017.0
20260902224534 69 20 0.0 0.0 0.00 0.00 0.00 81 1017.0
20260902223030 68 20 0.0 2.0 0.00 0.00 0.00 81 1017.1